Weather in Vrsar

Croatia     45°09′05″N   13°36′26″E
temp.,
°C
wind,
m/s
gust,
m/s
humid.,
%
clouds,
%
prec.,
mm/h
press.,
hPa
HPBL,
m
13 april, tue
tue1323:00+12sse101393100 11.3 1015586
02:00+12se5993100 20.6 1014449
05:00+9ne4591100 17.6 1014339
08:00+6ne81384100 25.0 1017895
11:00+8ne101567100 0.6 10191476
14:00+8nne101269100 0.6 10211087
17:00+8n6870100 0.0 1021947
20:00+7nnw5677100 0.1 1022557
14 april, wed
wed1423:00+8n5676100 0.0 1023574
02:00+8n6779100 0.3 1024629
05:00+7nne4580100 0.9 1023424
08:00+8ne227289 1.7 1024149
11:00+9nw225631 0.1 1024541
14:00+10wnw545915 0.1 1023761
17:00+10wnw325515 0.0 1022608
20:00+10sw32595 0.0 1022575
15 april, thu
thu1523:00+9ne216176 0.0 1023266
02:00+8ese5671100 0.3 1022283
05:00+7ene456693 0.0 1022249
08:00+7e226277 0.1 1023177
11:00+9nw22555 0.0 1023554
14:00+10nw54555 0.0 1022466
17:00+10wnw33485 0.0 1021427
20:00+10n23505 0.0 1020299
16 april, fri
fri1623:00+9ne33725 0.0 1021148
02:00+8ne33721 0.0 1020159
05:00+7ene33690 0.0 1019149
08:00+8ene22610 0.0 1020154
11:00+10nnw2250100 0.0 1019339
14:00+11w3349100 0.0 1018591
17:00+13s3351100 0.0 1016308
20:00+12ene2557100 0.0 1016239
17 april, sat
sat1723:00+10ne4563100 0.0 1016231
02:00+9nne5762100 0.0 1015337
05:00+9ne5660100 0.0 1014305
08:00+9ne5659100 0.0 1014343
11:00+11ene5749100 0.0 10131203
14:00+12ne101354100 0.0 10131640
17:00+12ene101356100 0.0 10121620
20:00+10ne91366100 0.0 10121093